TimeCST,TemperatureF,Dew PointF,Humidity,Sea Level PressureIn,VisibilityMPH,Wind Direction,Wind SpeedMPH,Gust SpeedMPH,PrecipitationIn,Events,Conditions,WindDirDegrees,DateUTC
12:53 AM,36.0,34.0,93,30.22,7.0,SSW,5.8,-,N/A,,Mostly Cloudy,200,2013-01-06 06:53:00
1:53 AM,35.1,32.0,89,30.21,6.0,SSW,4.6,-,N/A,,Clear,210,2013-01-06 07:53:00
3:53 AM,34.0,30.9,89,30.18,4.0,SSW,6.9,-,N/A,,Clear,200,2013-01-06 09:53:00
4:53 AM,32.0,30.0,92,30.18,5.0,Calm,Calm,-,N/A,,Clear,0,2013-01-06 10:53:00
5:53 AM,30.9,28.0,89,30.19,8.0,SSW,5.8,-,N/A,,Clear,200,2013-01-06 11:53:00
6:53 AM,30.9,28.0,89,30.21,8.0,SW,3.5,-,N/A,,Clear,230,2013-01-06 12:53:00
7:53 AM,33.1,28.9,85,30.24,9.0,WSW,3.5,-,N/A,,Clear,250,2013-01-06 13:53:00
8:53 AM,37.9,30.9,76,30.25,10.0,West,6.9,-,N/A,,Clear,280,2013-01-06 14:53:00
9:53 AM,39.9,28.9,65,30.26,10.0,NNW,13.8,-,N/A,,Clear,330,2013-01-06 15:53:00
10:53 AM,42.1,28.0,58,30.27,10.0,WNW,13.8,-,N/A,,Clear,300,2013-01-06 16:53:00
11:53 AM,44.1,28.0,53,30.26,10.0,NW,10.4,-,N/A,,Clear,320,2013-01-06 17:53:00
12:53 PM,44.1,27.0,51,30.26,10.0,WNW,9.2,18.4,N/A,,Clear,290,2013-01-06 18:53:00
1:53 PM,46.0,27.0,47,30.28,10.0,WNW,10.4,-,N/A,,Clear,290,2013-01-06 19:53:00
2:53 PM,46.0,26.1,46,30.30,10.0,NNW,10.4,-,N/A,,Clear,340,2013-01-06 20:53:00
3:53 PM,45.0,25.0,46,30.32,10.0,North,8.1,-,N/A,,Clear,350,2013-01-06 21:53:00
4:53 PM,39.9,24.1,53,30.34,10.0,North,4.6,-,N/A,,Clear,350,2013-01-06 22:53:00
5:53 PM,36.0,24.1,62,30.36,10.0,Calm,Calm,-,N/A,,Clear,0,2013-01-06 23:53:00
6:53 PM,33.1,23.0,66,30.38,10.0,Calm,Calm,-,N/A,,Clear,0,2013-01-07 00:53:00
7:53 PM,30.0,25.0,82,30.39,10.0,Calm,Calm,-,N/A,,Clear,0,2013-01-07 01:53:00
9:53 PM,27.0,23.0,85,30.40,9.0,Calm,Calm,-,N/A,,Clear,0,2013-01-07 03:53:00
10:53 PM,26.1,21.9,84,30.41,10.0,Calm,Calm,-,N/A,,Clear,0,2013-01-07 04:53:00
11:53 PM,26.1,21.9,84,30.42,10.0,Calm,Calm,-,N/A,,Clear,0,2013-01-07 05:53:00